EW3714 Weather Reports


Display with metric or nautical units.
time (UTC)temp
F
wind
direction
speed
MPH
gust
MPH
rain 1hr
in
rain 24hr
in
rain mn
in
humidity
%
barometer
mb
20260504190721 83 117 1.0 4.0 0.00 0.00 0.00 55 1013.0
20260504190218 83 237 0.0 4.0 0.00 0.00 0.00 55 1012.9
20260504185714 83 25 4.0 6.0 0.00 0.00 0.00 55 1013.0
20260504185211 83 174 0.0 4.0 0.00 0.00 0.00 56 1013.1
20260504184707 83 51 1.0 4.0 0.00 0.00 0.00 54 1013.0
20260504184203 83 113 2.0 4.0 0.00 0.00 0.00 55 1013.0
20260504183659 83 95 1.0 2.0 0.00 0.00 0.00 55 1013.1
20260504183156 82 82 4.0 4.0 0.00 0.00 0.00 56 1013.4
20260504182654 83 92 3.0 4.0 0.00 0.00 0.00 54 1013.7
20260504182152 82 149 0.0 4.0 0.00 0.00 0.00 57 1013.6
20260504181649 82 99 1.0 4.0 0.00 0.00 0.00 57 1013.8
20260504181147 81 133 2.0 5.0 0.00 0.00 0.00 57 1013.7
20260504180645 81 86 1.0 4.0 0.00 0.00 0.00 58 1013.8
20260504180143 79 110 2.0 3.0 0.00 0.00 0.00 62 1014.0
20260504175640 79 77 2.0 6.0 0.00 0.00 0.00 62 1013.7
20260504175137 78 98 2.0 3.0 0.00 0.00 0.00 62 1014.0
20260504174636 77 87 2.0 4.0 0.00 0.00 0.00 64 1014.0
20260504174131 77 93 2.0 5.0 0.00 0.00 0.00 64 1014.2
20260504173629 77 92 3.0 4.0 0.00 0.00 0.00 64 1014.3
20260504173126 76 80 1.0 4.0 0.00 0.00 0.00 65 1014.4
20260504172622 77 67 4.0 4.0 0.00 0.00 0.00 64 1014.6
20260504172119 77 83 2.0 4.0 0.00 0.00 0.00 64 1014.8
20260504171616 77 42 4.0 7.0 0.00 0.00 0.00 63 1014.8
20260504171113 75 70 2.0 7.0 0.00 0.00 0.00 67 1015.0
20260504170609 75 47 3.0 6.0 0.00 0.00 0.00 67 1014.8
20260504170107 75 74 0.0 5.0 0.00 0.00 0.00 67 1014.8
20260504150952 70 116 2.0 4.0 0.00 0.00 0.00 72 1015.6
20260504150449 70 54 2.0 5.0 0.00 0.00 0.00 73 1015.7
20260504140916 67 119 2.0 3.0 0.00 0.00 0.00 76 1015.5
20260504140412 66 112 1.0 4.0 0.00 0.00 0.00 77 1015.6
20260504130337 63 63 4.0 4.0 0.00 0.00 0.00 81 1015.6
20260504120300 60 89 2.0 3.0 0.00 0.00 0.00 85 1015.0
20260504110224 61 70 2.0 3.0 0.00 0.00 0.00 82 1015.5
20260504100148 62 76 2.0 4.0 0.00 0.00 0.00 80 1015.4
20260504090110 62 71 3.0 3.0 0.00 0.00 0.00 79 1015.6
20260504081541 63 60 2.0 3.0 0.00 0.00 0.00 76 1016.0
20260504081036 63 79 3.0 3.0 0.00 0.00 0.00 75 1016.1
20260504080533 63 87 2.0 3.0 0.00 0.00 0.00 76 1016.0
20260504050346 66 94 2.0 3.0 0.00 0.00 0.00 65 1017.8
20260504045843 67 97 2.0 3.0 0.00 0.00 0.00 66 1017.8
20260504045338 67 76 2.0 3.0 0.00 0.00 0.00 65 1018.0
20260504044835 67 75 3.0 6.0 0.00 0.00 0.00 64 1018.0
20260504044332 67 122 2.0 2.0 0.00 0.00 0.00 65 1018.1
20260504043830 67 94 2.0 3.0 0.00 0.00 0.00 63 1018.1
20260504043326 67 84 2.0 3.0 0.00 0.00 0.00 64 1018.0
20260504042824 67 93 2.0 2.0 0.00 0.00 0.00 64 1018.2
20260504042320 67 78 2.0 4.0 0.00 0.00 0.00 64 1018.1
20260504041816 67 99 1.0 4.0 0.00 0.00 0.00 62 1018.1
20260504041313 67 85 2.0 4.0 0.00 0.00 0.00 61 1018.4
20260504040809 67 104 2.0 3.0 0.00 0.00 0.00 62 1018.2
20260504040307 67 70 2.0 3.0 0.00 0.00 0.00 61 1018.3
20260504035802 67 96 2.0 3.0 0.00 0.00 0.00 62 1018.1
20260504035300 66 83 2.0 2.0 0.00 0.00 0.00 60 1018.1
20260504034757 65 89 2.0 3.0 0.00 0.00 0.00 62 1018.1
20260504034254 65 80 3.0 3.0 0.00 0.00 0.00 62 1018.1
20260504033752 65 65 2.0 2.0 0.00 0.00 0.00 62 1018.1
20260504033249 65 93 2.0 2.0 0.00 0.00 0.00 63 1018.0
20260504032746 65 91 2.0 2.0 0.00 0.00 0.00 61 1018.1
20260504032243 65 71 2.0 2.0 0.00 0.00 0.00 62 1018.0
20260504031739 65 93 1.0 2.0 0.00 0.00 0.00 61 1018.1
20260504031237 65 95 2.0 2.0 0.00 0.00 0.00 59 1018.1
20260504030732 65 89 2.0 2.0 0.00 0.00 0.00 59 1018.0
20260504030230 65 89 2.0 2.0 0.00 0.00 0.00 59 1018.0
20260504025726 66 93 2.0 2.0 0.00 0.00 0.00 58 1017.9
20260504025223 66 92 2.0 2.0 0.00 0.00 0.00 59 1017.9
20260504024720 66 86 2.0 2.0 0.00 0.00 0.00 59 1018.0
20260504024217 66 79 2.0 2.0 0.00 0.00 0.00 60 1018.0
20260504023714 66 93 2.0 2.0 0.00 0.00 0.00 58 1017.8
20260504023209 67 87 1.0 2.0 0.00 0.00 0.00 57 1017.8
20260504022706 67 88 2.0 2.0 0.00 0.00 0.00 57 1017.9
20260504022202 67 86 2.0 2.0 0.00 0.00 0.00 56 1018.0
20260504021700 68 81 2.0 2.0 0.00 0.00 0.00 57 1017.9
20260504021156 68 92 2.0 2.0 0.00 0.00 0.00 56 1018.1
20260504020653 68 78 2.0 2.0 0.00 0.00 0.00 57 1017.8
20260504020149 68 83 2.0 2.0 0.00 0.00 0.00 56 1017.9
20260504015646 69 84 1.0 2.0 0.00 0.00 0.00 55 1017.6
20260504015143 69 95 1.0 2.0 0.00 0.00 0.00 54 1017.5
20260504014638 69 83 2.0 2.0 0.00 0.00 0.00 55 1017.3
20260504014136 69 86 2.0 2.0 0.00 0.00 0.00 53 1017.4
20260504013633 70 96 2.0 2.0 0.00 0.00 0.00 52 1017.3
20260504013130 70 79 2.0 2.0 0.00 0.00 0.00 51 1017.3
20260504012627 70 92 2.0 2.0 0.00 0.00 0.00 51 1017.3
20260504012125 71 86 2.0 2.0 0.00 0.00 0.00 51 1017.3
20260504011622 71 73 2.0 2.0 0.00 0.00 0.00 51 1017.4
20260504011118 71 89 0.0 2.0 0.00 0.00 0.00 51 1017.3
20260504010614 72 87 1.0 2.0 0.00 0.00 0.00 49 1017.4
20260504010110 72 85 2.0 2.0 0.00 0.00 0.00 48 1017.2
20260504005607 73 61 2.0 2.0 0.00 0.00 0.00 47 1017.4
20260504005104 73 93 1.0 2.0 0.00 0.00 0.00 48 1017.4
20260504004602 73 50 2.0 2.0 0.00 0.00 0.00 48 1017.4
20260504004059 73 61 2.0 2.0 0.00 0.00 0.00 45 1017.3
20260504003555 74 101 2.0 2.0 0.00 0.00 0.00 47 1017.2
20260504003052 74 73 2.0 2.0 0.00 0.00 0.00 47 1017.4
20260504002549 75 93 2.0 2.0 0.00 0.00 0.00 45 1017.4
20260504002046 76 111 1.0 2.0 0.00 0.00 0.00 42 1017.4
20260504001544 76 48 2.0 4.0 0.00 0.00 0.00 41 1017.7
20260504001040 76 122 2.0 3.0 0.00 0.00 0.00 47 1017.7
20260504000537 76 98 1.0 2.0 0.00 0.00 0.00 44 1017.9
20260504000035 76 58 0.0 2.0 0.00 0.00 0.00 42 1017.6
20260503235533 77 46 2.0 2.0 0.00 0.00 0.00 41 1017.9
20260503235029 77 127 0.0 3.0 0.00 0.00 0.00 39 1017.8
20260503234527 77 137 2.0 3.0 0.00 0.00 0.00 39 1017.8
20260503234025 78 76 2.0 3.0 0.00 0.00 0.00 40 1018.0
20260503233521 77 95 2.0 2.0 0.00 0.00 0.00 42 1017.8
20260503233017 77 63 1.0 2.0 0.00 0.00 0.00 42 1017.9
20260503232514 77 89 2.0 3.0 0.00 0.00 0.00 42 1017.9
20260503232012 78 37 0.0 3.0 0.00 0.00 0.00 38 1018.0
20260503231509 78 120 1.0 5.0 0.00 0.00 0.00 38 1018.1
20260503231006 78 61 0.0 3.0 0.00 0.00 0.00 39 1018.0
20260503230503 78 76 0.0 3.0 0.00 0.00 0.00 40 1017.7
20260503230000 78 85 2.0 2.0 0.00 0.00 0.00 42 1017.8
20260503225456 78 121 2.0 2.0 0.00 0.00 0.00 39 1017.9
20260503224952 79 82 0.0 3.0 0.00 0.00 0.00 37 1018.0
20260503224449 78 131 1.0 4.0 0.00 0.00 0.00 37 1018.0
20260503223947 79 107 1.0 3.0 0.00 0.00 0.00 37 1018.0
20260503223445 79 59 2.0 4.0 0.00 0.00 0.00 37 1018.2
20260503222940 79 127 2.0 3.0 0.00 0.00 0.00 36 1018.3
20260503222439 79 155 0.0 2.0 0.00 0.00 0.00 36 1018.4
20260503221937 79 135 0.0 3.0 0.00 0.00 0.00 37 1018.4
20260503221435 79 1 4.0 4.0 0.00 0.00 0.00 36 1018.5
20260503220931 79 173 2.0 5.0 0.00 0.00 0.00 36 1018.5
20260503220427 80 75 0.0 2.0 0.00 0.00 0.00 35 1018.8
20260503215925 80 66 1.0 2.0 0.00 0.00 0.00 36 1018.5
20260503215422 80 157 1.0 2.0 0.00 0.00 0.00 34 1018.9
20260503214919 80 123 2.0 3.0 0.00 0.00 0.00 35 1018.8
20260503214417 80 142 0.0 3.0 0.00 0.00 0.00 36 1018.8
20260503213914 80 101 1.0 5.0 0.00 0.00 0.00 34 1019.1
20260503213412 80 69 0.0 3.0 0.00 0.00 0.00 35 1019.3
20260503212908 80 43 3.0 3.0 0.00 0.00 0.00 34 1019.1
20260503212406 81 141 2.0 4.0 0.00 0.00 0.00 35 1019.1
20260503211903 81 129 1.0 3.0 0.00 0.00 0.00 33 1019.3
20260503211359 81 133 2.0 4.0 0.00 0.00 0.00 34 1019.5
20260503210855 82 69 2.0 3.0 0.00 0.00 0.00 34 1019.6
20260503210352 82 173 0.0 3.0 0.00 0.00 0.00 35 1019.7
20260503205847 84 347 3.0 4.0 0.00 0.00 0.00 32 1019.9
20260503205344 84 40 2.0 3.0 0.00 0.00 0.00 32 1020.1
20260503204840 84 268 0.0 4.0 0.00 0.00 0.00 32 1019.8
20260503204338 84 146 1.0 3.0 0.00 0.00 0.00 32 1019.8
20260503203835 85 166 0.0 4.0 0.00 0.00 0.00 32 1020.0
20260503203332 84 39 2.0 3.0 0.00 0.00 0.00 32 1020.1
20260503202829 84 178 2.0 3.0 0.00 0.00 0.00 31 1020.2
20260503202327 86 157 0.0 3.0 0.00 0.00 0.00 29 1020.4
20260503201826 87 95 0.0 2.0 0.00 0.00 0.00 30 1020.4
20260503201322 86 50 0.0 2.0 0.00 0.00 0.00 30 1020.6
20260503200820 86 209 0.0 3.0 0.00 0.00 0.00 32 1020.6
20260503200315 86 116 1.0 3.0 0.00 0.00 0.00 31 1020.6
20260503195813 84 20 0.0 5.0 0.00 0.00 0.00 33 1020.9
20260503195309 86 81 2.0 5.0 0.00 0.00 0.00 31 1020.8
20260503194807 84 117 0.0 4.0 0.00 0.00 0.00 35 1020.9
20260503194302 86 37 1.0 3.0 0.00 0.00 0.00 32 1020.7
20260503193759 85 164 0.0 4.0 0.00 0.00 0.00 32 1020.9
20260503193255 84 129 0.0 3.0 0.00 0.00 0.00 32 1020.9
20260503192751 85 180 2.0 4.0 0.00 0.00 0.00 31 1021.1
20260503192246 86 39 0.0 2.0 0.00 0.00 0.00 33 1021.0
20260503191743 84 115 2.0 2.0 0.00 0.00 0.00 34 1021.1
20260503191240 82 70 0.0 4.0 0.00 0.00 0.00 35 1021.3